Location: Newark
(39.6867°N, 100.6772°W)
Time: 21:24:18
(UTC+00:00)

Vanguard 1 - Pass Details

Date: 15 October 2019
Orbit: 652 x 3831 km, 34.2° (Epoch: 18 November)

Event Time Altitude Azimuth Distance (km) Brightness Sun altitude
Rises 10:34:51 0° 281° (W) 7,457 - -27.2°
Reaches altitude 10° 10:41:31 10° 269° (W) 6,735 - -25.9°
Exits shadow 10:54:12 22° 235° (SW) 5,942 13.5 -23.5°
Maximum altitude 10:56:22 22° 228° (SW) 5,901 13.5 -23.1°
Drops below altitude 10° 11:10:47 10° 186° (S) 6,406 14.1 -20.4°
Sets 11:17:06 0° 173° (S) 7,005 14.5 -19.1°
